CW6043 Weather Reports


time (UTC)temp
C
wind
direction
speed
KPH
gust
KPH
rain 1hr
cm
rain 24hr
cm
rain mn
cm
humidity
%
barometer
mb
20260506215018 24 293 4.8 16.1 0.00 0.00 0.00 42 1011.2
20260506214038 25 293 4.8 9.7 0.00 0.00 0.00 42 1011.6
20260506213017 24 293 3.2 11.3 0.00 0.00 0.00 44 1011.4
20260506212037 24 293 4.8 12.9 0.00 0.00 0.00 43 1011.6
20260506211017 24 270 4.8 11.3 0.00 0.00 0.00 45 1011.6
20260506210018 24 293 4.8 12.9 0.00 0.00 0.00 44 1011.8
20260506205018 24 270 3.2 9.7 0.00 0.00 0.00 46 1011.9
20260506204017 23 270 3.2 8.0 0.00 0.00 0.00 44 1012.0
20260506203017 24 293 3.2 9.7 0.00 0.00 0.00 45 1012.0
20260506202017 23 270 1.6 8.0 0.00 0.00 0.00 44 1012.3
20260506201017 23 293 1.6 11.3 0.00 0.00 0.00 45 1012.5
20260506200018 23 135 1.6 4.8 0.00 0.00 0.00 47 1012.5
20260506195018 23 135 1.6 8.0 0.00 0.00 0.00 40 1012.8
20260506194018 23 293 1.6 4.8 0.00 0.00 0.00 42 1012.7
20260506193018 22 135 3.2 11.3 0.00 0.00 0.00 45 1012.7
20260506192058 22 90 1.6 9.7 0.00 0.00 0.00 41 1012.9
20260506191017 21 90 3.2 16.1 0.00 0.00 0.00 42 1013.0
20260506190019 21 90 1.6 6.4 0.00 0.00 0.00 44 1013.2
20260506185037 21 90 3.2 8.0 0.00 0.00 0.00 40 1013.4
20260506184017 20 135 1.6 3.2 0.00 0.00 0.00 41 1013.3
20260506183017 20 270 3.2 8.0 0.00 0.00 0.00 40 1013.4
20260506182018 20 270 3.2 8.0 0.00 0.00 0.00 40 1013.7
20260506181037 20 293 1.6 6.4 0.00 0.00 0.00 40 1013.5
20260506180018 19 293 3.2 8.0 0.00 0.00 0.00 42 1013.6
20260506175018 20 0.0 1.6 0.00 0.00 0.00 45 1013.8
20260506174017 18 113 1.6 3.2 0.00 0.00 0.00 43 1013.7
20260506173037 18 293 1.6 4.8 0.00 0.00 0.00 53 1013.9
20260506172017 17 270 1.6 4.8 0.00 0.00 0.00 46 1013.9
20260506171017 17 0.0 1.6 0.00 0.00 0.00 46 1013.8
20260506170017 17 0.0 1.6 0.00 0.00 0.00 48 1014.0
20260506165017 17 90 1.6 4.8 0.00 0.00 0.00 52 1014.3
20260506164017 16 158 1.6 4.8 0.00 0.00 0.00 51 1014.5
20260506163017 16 0.0 1.6 0.00 0.00 0.00 53 1014.5
20260506162017 15 270 1.6 4.8 0.00 0.00 0.00 52 1014.5
20260506161037 15 0.0 3.2 0.00 0.00 0.00 54 1014.5
20260506160037 14 0.0 4.8 0.00 0.00 0.00 54 1014.4
20260506155017 14 0.0 1.6 0.00 0.00 0.00 57 1014.8
20260506154017 13 0.0 1.6 0.00 0.00 0.00 58 1014.8
20260506153037 12 158 1.6 3.2 0.00 0.00 0.00 62 1014.5
20260506152017 12 0.0 1.6 0.00 0.00 0.00 67 1015.0
20260506151038 10 158 1.6 3.2 0.00 0.00 0.00 71 1014.9
20260506150017 10 0.0 1.6 0.00 0.00 0.00 72 1014.8
20260506145017 9 0.0 0.0 0.00 0.00 0.00 85 1015.2
20260506144057 7 0.0 0.0 0.00 0.00 0.00 93 1015.1
20260506143017 6 0.0 0.0 0.00 0.00 0.00 94 1014.8
20260506142017 3 0.0 0.0 0.00 0.00 0.00 93 1014.7
20260506141017 3 0.0 0.0 0.00 0.00 0.00 93 1014.7
20260506140017 2 0.0 0.0 0.00 0.00 0.00 93 1014.6
20260506135017 1 0.0 0.0 0.00 0.00 0.00 92 1014.6
20260506134017 1 0.0 0.0 0.00 0.00 0.00 92 1014.3
20260506133017 1 0.0 0.0 0.00 0.00 0.00 92 1014.2
20260506132017 0 0.0 0.0 0.00 0.00 0.00 91 1014.1
20260506131057 0 0.0 0.0 0.00 0.00 0.00 91 1014.1
20260506130017 0 0.0 0.0 0.00 0.00 0.00 91 1014.0
20260506125017 0 0.0 0.0 0.00 0.00 0.00 91 1013.8
20260506124017 0 0.0 0.0 0.00 0.00 0.00 91 1013.7
20260506123017 0 0.0 0.0 0.00 0.00 0.00 90 1013.7
20260506122017 0 0.0 0.0 0.00 0.00 0.00 90 1013.4
20260506121017 0 0.0 0.0 0.00 0.00 0.00 90 1013.4
20260506120017 1 0.0 0.0 0.00 0.00 0.00 90 1013.4
20260506115037 1 0.0 0.0 0.00 0.00 0.00 90 1013.3
20260506114017 1 0.0 0.0 0.00 0.00 0.00 90 1013.4
20260506113017 1 0.0 0.0 0.00 0.00 0.00 90 1013.5
20260506112017 1 0.0 0.0 0.00 0.00 0.00 90 1013.5
20260506111017 1 0.0 0.0 0.00 0.00 0.00 90 1013.4
20260506110017 1 0.0 0.0 0.00 0.00 0.00 90 1013.4
20260506105017 1 0.0 0.0 0.00 0.00 0.00 90 1013.3
20260506104017 1 0.0 0.0 0.00 0.00 0.00 90 1013.3
20260506103017 2 0.0 0.0 0.00 0.00 0.00 89 1013.2
20260506102017 2 0.0 0.0 0.00 0.00 0.00 89 1013.2
20260506101037 2 0.0 0.0 0.00 0.00 0.00 89 1013.1
20260506100017 2 0.0 0.0 0.00 0.00 0.00 89 1013.1
20260506095017 2 0.0 0.0 0.00 0.00 0.00 89 1013.1
20260506094017 2 0.0 0.0 0.00 0.00 0.00 89 1013.1
20260506093016 2 0.0 0.0 0.00 0.00 0.00 89 1013.1
20260506092016 2 0.0 0.0 0.00 0.00 0.00 88 1013.1
20260506091016 2 0.0 0.0 0.00 0.00 0.00 88 1013.0
20260506090037 3 0.0 0.0 0.00 0.00 0.00 88 1013.0
20260506085016 3 0.0 0.0 0.00 0.00 0.00 87 1012.9
20260506084016 3 0.0 0.0 0.00 0.00 0.00 87 1013.0
20260506083017 3 0.0 0.0 0.00 0.00 0.00 87 1013.0
20260506082017 3 0.0 0.0 0.00 0.00 0.00 87 1012.8
20260506081017 3 0.0 0.0 0.00 0.00 0.00 86 1012.7
20260506073016 4 0.0 0.0 0.00 0.00 0.00 85 1012.2
20260506072037 5 0.0 0.0 0.00 0.00 0.00 84 1012.3
20260506071036 5 0.0 0.0 0.00 0.00 0.00 84 1012.2
20260506062017 6 0.0 0.0 0.00 0.00 0.00 80 1012.0
20260506061037 6 0.0 0.0 0.00 0.00 0.00 80 1012.0
20260506051016 8 0.0 0.0 0.00 0.00 0.00 76 1011.4
20260506045017 8 0.0 0.0 0.00 0.00 0.00 74 1011.1
20260506044017 9 0.0 0.0 0.00 0.00 0.00 73 1011.1
20260506043016 10 0.0 0.0 0.00 0.00 0.00 71 1011.1
20260506042036 10 0.0 0.0 0.00 0.00 0.00 69 1011.0
20260506041037 10 0.0 0.0 0.00 0.00 0.00 68 1011.0
20260506040037 11 0.0 0.0 0.00 0.00 0.00 68 1011.1
20260506035017 11 0.0 0.0 0.00 0.00 0.00 63 1010.7
20260506034017 12 0.0 0.0 0.00 0.00 0.00 61 1010.8
20260506033036 13 0.0 0.0 0.00 0.00 0.00 61 1010.9
20260506032016 13 0.0 0.0 0.00 0.00 0.00 59 1010.7
20260506031016 15 0.0 0.0 0.00 0.00 0.00 56 1010.7
20260506030017 15 0.0 0.0 0.00 0.00 0.00 53 1010.7
20260506025016 17 0.0 0.0 0.00 0.00 0.00 46 1010.0
20260506024016 18 0.0 0.0 0.00 0.00 0.00 45 1010.1
20260506023016 20 0.0 0.0 0.00 0.00 0.00 41 1010.3
20260506022017 21 0.0 0.0 0.00 0.00 0.00 37 1010.1
20260506021016 22 0.0 0.0 0.00 0.00 0.00 34 1010.4
20260506020016 23 0.0 1.6 0.00 0.00 0.00 30 1010.5
20260506015037 23 0.0 3.2 0.00 0.00 0.00 31 1010.4
20260506014016 23 0.0 3.2 0.00 0.00 0.00 30 1010.5
20260506013036 23 0.0 3.2 0.00 0.00 0.00 29 1010.4
20260506012016 23 158 1.6 4.8 0.00 0.00 0.00 28 1010.4
20260506011016 23 0.0 1.6 0.00 0.00 0.00 28 1010.4
20260506010016 23 135 1.6 3.2 0.00 0.00 0.00 28 1010.4
20260506005017 23 270 1.6 6.4 0.00 0.00 0.00 27 1010.6
20260506004016 23 113 1.6 3.2 0.00 0.00 0.00 25 1010.7
20260506003016 23 135 1.6 4.8 0.00 0.00 0.00 27 1010.8
20260506002016 23 270 1.6 4.8 0.00 0.00 0.00 28 1010.9
20260506001016 22 90 1.6 4.8 0.00 0.00 0.00 31 1011.0
20260506000016 23 113 1.6 3.2 0.00 0.00 0.00 27 1011.0
20260505235016 23 158 3.2 8.0 0.00 0.00 0.00 27 1011.3
20260505234016 23 270 1.6 4.8 0.00 0.00 0.00 25 1011.5
20260505233016 23 225 1.6 6.4 0.00 0.00 0.00 25 1011.5
20260505232016 23 90 1.6 4.8 0.00 0.00 0.00 31 1011.8
20260505231016 23 0.0 3.2 0.00 0.00 0.00 27 1011.9
20260505230036 22 90 1.6 6.4 0.00 0.00 0.00 29 1011.8
20260505225016 23 90 1.6 6.4 0.00 0.00 0.00 31 1012.3
20260505224016 22 90 1.6 3.2 0.00 0.00 0.00 27 1012.2
20260505223016 23 135 1.6 6.4 0.00 0.00 0.00 27 1012.5
20260505222016 22 90 1.6 6.4 0.00 0.00 0.00 35 1012.6
20260505221036 22 90 4.8 14.5 0.00 0.00 0.00 29 1012.5
20260505220016 22 68 1.6 6.4 0.00 0.00 0.00 30 1012.6